CXA0504 ZHXY-ZJHK

Flight info

Callsign CXA0504
Flight time 3h 34m
Altitude 32100
Route REVKU W118 P403 H42 OVLAR W45 NUPTI R343 LBN W159 BHY W70 LIDLU
Aircraft B738/M-SDE2E3FGHIRWXY/LB1

Departure

Time 2026-05-04 10:59
Airport Xinyang Minggang Airport (ZHXY)

Arrival

Time 2026-05-04 14:33
Airport Haikou Meilan International Airport (ZJHK)
Time Latitude Longitude Altitude Speed Heading
2026-05-04 10:41 32.53820 114.06617 318 ft 0 kts 337°
2026-05-04 10:45 32.53816 114.06620 318 ft 3 kts 337°
2026-05-04 10:45 32.53792 114.06627 319 ft 4 kts 14°
2026-05-04 10:45 32.53775 114.06610 318 ft 4 kts 69°
2026-05-04 10:45 32.53766 114.06582 315 ft 2 kts 63°
2026-05-04 10:46 32.53765 114.06579 318 ft 0 kts 62°
2026-05-04 10:51 32.53867 114.06820 317 ft 14 kts 68°
2026-05-04 10:52 32.53903 114.06918 317 ft 12 kts 63°
2026-05-04 10:52 32.53940 114.07005 316 ft 11 kts 63°
2026-05-04 10:52 32.53973 114.07085 317 ft 11 kts 64°
2026-05-04 10:54 32.54334 114.07963 314 ft 18 kts 64°
2026-05-04 10:54 32.54387 114.08091 313 ft 17 kts 64°
2026-05-04 10:56 32.54706 114.08867 311 ft 13 kts 63°
2026-05-04 10:56 32.54743 114.08962 310 ft 13 kts 65°
2026-05-04 10:56 32.54779 114.09055 310 ft 12 kts 65°
2026-05-04 10:57 32.54755 114.09124 310 ft 10 kts 150°
2026-05-04 10:57 32.54691 114.09156 308 ft 10 kts 158°
2026-05-04 10:57 32.54629 114.09186 308 ft 9 kts 161°
2026-05-04 10:57 32.54589 114.09154 309 ft 7 kts 242°
2026-05-04 10:58 32.54574 114.09113 309 ft 0 kts 244°
2026-05-04 10:58 32.54557 114.09072 310 ft 28 kts 244°
2026-05-04 10:58 32.54357 114.08589 312 ft 101 kts 244°
2026-05-04 10:58 32.53943 114.07608 323 ft 162 kts 241°
2026-05-04 10:59 32.53407 114.06328 813 ft 176 kts 242°
2026-05-04 10:59 32.52791 114.05061 1680 ft 176 kts 239°
2026-05-04 10:59 32.52154 114.03862 2481 ft 168 kts 241°
2026-05-04 10:59 32.51579 114.02630 2838 ft 175 kts 244°
2026-05-04 11:00 32.51045 114.01351 3329 ft 171 kts 246°
2026-05-04 11:01 32.45995 113.89081 6847 ft 275 kts 247°
2026-05-04 11:02 32.45141 113.87034 7625 ft 279 kts 247°
2026-05-04 11:02 32.44288 113.84993 8396 ft 282 kts 248°
2026-05-04 11:05 32.42376 113.50257 16761 ft 360 kts 304°
2026-05-04 11:06 32.43716 113.47730 17355 ft 364 kts 303°
2026-05-04 11:06 32.45062 113.45170 17957 ft 368 kts 303°
2026-05-04 11:06 32.46412 113.42586 18524 ft 370 kts 303°
2026-05-04 11:06 32.47764 113.39990 19121 ft 371 kts 302°
2026-05-04 11:08 32.57302 113.21586 22949 ft 380 kts 301°
2026-05-04 11:10 32.57411 113.01435 26064 ft 397 kts 237°
2026-05-04 11:12 32.45373 112.83646 29161 ft 387 kts 237°
2026-05-04 11:12 32.43707 112.81162 29835 ft 381 kts 237°
2026-05-04 11:12 32.42075 112.78727 30365 ft 376 kts 237°
2026-05-04 11:12 32.40454 112.76307 30749 ft 374 kts 237°
2026-05-04 11:13 32.38833 112.73884 30995 ft 376 kts 237°
2026-05-04 11:13 32.37204 112.71453 31237 ft 378 kts 237°
2026-05-04 11:13 32.35577 112.69024 31482 ft 379 kts 237°
2026-05-04 11:13 32.33935 112.66578 31770 ft 379 kts 237°
2026-05-04 11:14 32.29031 112.59288 32048 ft 378 kts 237°
2026-05-04 11:16 32.18135 112.43136 32056 ft 377 kts 237°
2026-05-04 11:16 32.14864 112.38298 32063 ft 377 kts 237°
2026-05-04 11:17 32.11581 112.33451 32059 ft 378 kts 237°
2026-05-04 11:19 31.94140 112.24748 32059 ft 414 kts 199°
2026-05-04 11:19 31.91337 112.24217 32067 ft 413 kts 199°
2026-05-04 11:19 31.85668 112.23105 32064 ft 413 kts 199°
2026-05-04 11:20 31.79999 112.21964 32066 ft 414 kts 199°
2026-05-04 11:20 31.74321 112.20814 32072 ft 415 kts 199°
2026-05-04 11:22 31.51404 112.16191 32080 ft 421 kts 199°
2026-05-04 11:23 31.45617 112.15027 32080 ft 423 kts 199°
2026-05-04 11:25 31.25474 112.10332 32093 ft 421 kts 200°
2026-05-04 11:25 31.19798 112.08927 32077 ft 419 kts 200°
2026-05-04 11:27 30.94009 112.02635 32103 ft 423 kts 200°
2026-05-04 11:28 30.88241 112.01232 32097 ft 424 kts 200°
2026-05-04 11:28 30.82446 111.99825 32101 ft 425 kts 200°
2026-05-04 11:29 30.76656 111.98421 32089 ft 426 kts 200°
2026-05-04 11:29 30.70846 111.97013 32094 ft 426 kts 200°
2026-05-04 11:33 30.30537 111.87347 32091 ft 420 kts 200°
2026-05-04 11:33 30.24813 111.85981 32093 ft 420 kts 200°
2026-05-04 11:34 30.19090 111.84617 32092 ft 420 kts 200°
2026-05-04 11:34 30.13371 111.83255 32099 ft 419 kts 200°
2026-05-04 11:35 30.07657 111.81896 32096 ft 420 kts 200°
2026-05-04 11:35 30.01934 111.80537 32102 ft 420 kts 200°
2026-05-04 11:36 29.96214 111.79180 32098 ft 420 kts 200°
2026-05-04 11:36 29.90489 111.77823 32100 ft 420 kts 200°
2026-05-04 11:37 29.84761 111.76468 32097 ft 420 kts 200°
2026-05-04 11:37 29.79029 111.75112 32103 ft 421 kts 200°
2026-05-04 11:38 29.73293 111.73758 32092 ft 421 kts 200°
2026-05-04 11:38 29.67553 111.72405 32101 ft 421 kts 201°
2026-05-04 11:39 29.61853 111.71062 32100 ft 421 kts 201°
2026-05-04 11:41 29.41768 111.66342 32104 ft 421 kts 201°
2026-05-04 11:41 29.36030 111.65006 32096 ft 422 kts 200°
2026-05-04 11:42 29.30093 111.64465 32099 ft 431 kts 192°
2026-05-04 11:42 29.24088 111.64202 32102 ft 431 kts 192°
2026-05-04 11:43 29.18091 111.63917 32098 ft 431 kts 193°
2026-05-04 11:43 29.12144 111.63609 32128 ft 431 kts 193°
2026-05-04 11:44 29.06147 111.63290 32106 ft 431 kts 193°
2026-05-04 11:44 29.00150 111.62973 32098 ft 431 kts 193°
2026-05-04 11:45 28.94152 111.62657 32098 ft 431 kts 193°
2026-05-04 11:45 28.88166 111.62342 32101 ft 431 kts 194°
2026-05-04 11:46 28.82176 111.61970 32099 ft 428 kts 196°
2026-05-04 11:46 28.76270 111.61310 32109 ft 426 kts 197°
2026-05-04 11:47 28.70362 111.60613 32099 ft 427 kts 197°
2026-05-04 11:47 28.64493 111.59960 32101 ft 427 kts 197°
2026-05-04 11:48 28.58567 111.59319 32105 ft 427 kts 197°
2026-05-04 11:48 28.52655 111.58681 32106 ft 427 kts 197°
2026-05-04 11:49 28.46739 111.58042 32111 ft 427 kts 197°
2026-05-04 11:49 28.40827 111.57406 32098 ft 427 kts 197°
2026-05-04 11:50 28.34910 111.56779 32117 ft 427 kts 197°
2026-05-04 11:50 28.28987 111.56153 32122 ft 427 kts 197°
2026-05-04 11:51 28.23052 111.55525 32117 ft 429 kts 197°
2026-05-04 11:51 28.17098 111.54895 32113 ft 430 kts 196°
2026-05-04 11:52 28.11138 111.54266 32113 ft 431 kts 196°
2026-05-04 11:52 28.05175 111.53637 32116 ft 431 kts 196°
2026-05-04 11:53 27.99245 111.53013 32119 ft 431 kts 196°
2026-05-04 11:53 27.93277 111.52388 32119 ft 431 kts 196°
2026-05-04 11:55 27.69423 111.49504 32119 ft 435 kts 195°
2026-05-04 11:56 27.63400 111.48943 32123 ft 434 kts 195°
2026-05-04 11:56 27.57388 111.48357 32111 ft 432 kts 195°
2026-05-04 11:57 27.51408 111.47762 32124 ft 431 kts 195°
2026-05-04 11:57 27.45430 111.47161 32098 ft 430 kts 195°
2026-05-04 11:58 27.39487 111.46570 32104 ft 429 kts 195°
2026-05-04 11:58 27.33546 111.45979 32121 ft 428 kts 195°
2026-05-04 11:59 27.27604 111.45386 32117 ft 429 kts 195°
2026-05-04 11:59 27.21692 111.44798 32125 ft 430 kts 195°
2026-05-04 12:00 27.15720 111.44206 32117 ft 431 kts 195°
2026-05-04 12:00 27.09743 111.43613 32120 ft 431 kts 195°
2026-05-04 12:01 27.03755 111.43020 32111 ft 432 kts 195°
2026-05-04 12:02 26.84613 111.36673 32119 ft 400 kts 221°
2026-05-04 12:03 26.79971 111.33207 32124 ft 401 kts 221°
2026-05-04 12:03 26.75297 111.29756 32114 ft 403 kts 221°
2026-05-04 12:04 26.70592 111.26303 32130 ft 406 kts 221°
2026-05-04 12:04 26.65883 111.22855 32115 ft 408 kts 221°
2026-05-04 12:05 26.61131 111.19380 32115 ft 407 kts 221°
2026-05-04 12:05 26.56390 111.15960 32123 ft 406 kts 219°
2026-05-04 12:06 26.52380 111.13244 32126 ft 404 kts 219°
2026-05-04 12:06 26.46768 111.09470 32124 ft 402 kts 219°
2026-05-04 12:07 26.42794 111.06778 32128 ft 402 kts 219°
2026-05-04 12:07 26.37198 111.02980 32127 ft 403 kts 219°
2026-05-04 12:08 26.33210 111.00278 32118 ft 403 kts 219°
2026-05-04 12:08 26.28415 110.97015 32121 ft 405 kts 219°
2026-05-04 12:09 26.23621 110.93739 32121 ft 404 kts 219°
2026-05-04 12:09 26.18822 110.90464 32109 ft 403 kts 219°
2026-05-04 12:10 26.14046 110.87211 32132 ft 403 kts 219°
2026-05-04 12:10 26.09254 110.83945 32133 ft 406 kts 219°
2026-05-04 12:11 26.04420 110.80661 32118 ft 407 kts 219°
2026-05-04 12:11 25.99609 110.77397 32105 ft 405 kts 219°
2026-05-04 12:12 25.94851 110.74169 32127 ft 404 kts 219°
2026-05-04 12:12 25.90040 110.70907 32115 ft 407 kts 219°
2026-05-04 12:14 25.70695 110.57762 32117 ft 408 kts 219°
2026-05-04 12:15 25.65889 110.54412 32116 ft 408 kts 219°
2026-05-04 12:15 25.61069 110.51064 32117 ft 408 kts 219°
2026-05-04 12:16 25.56250 110.47727 32106 ft 408 kts 219°
2026-05-04 12:16 25.51517 110.44280 32104 ft 406 kts 221°
2026-05-04 12:17 25.46824 110.40787 32107 ft 407 kts 221°
2026-05-04 12:17 25.42111 110.37315 32105 ft 407 kts 221°
2026-05-04 12:18 25.37416 110.33825 32108 ft 407 kts 221°
2026-05-04 12:18 25.32725 110.30329 32108 ft 407 kts 221°
2026-05-04 12:19 25.28058 110.26857 32109 ft 407 kts 221°
2026-05-04 12:19 25.23360 110.23367 32114 ft 407 kts 221°
2026-05-04 12:20 25.18655 110.19873 32117 ft 407 kts 221°
2026-05-04 12:20 25.13958 110.16367 32115 ft 408 kts 221°
2026-05-04 12:21 25.09257 110.12858 32116 ft 408 kts 221°
2026-05-04 12:21 25.04555 110.09352 32109 ft 408 kts 221°
2026-05-04 12:22 24.99851 110.05849 32112 ft 408 kts 221°
2026-05-04 12:22 24.95150 110.02352 32104 ft 408 kts 221°
2026-05-04 12:23 24.90444 109.98854 32098 ft 408 kts 221°
2026-05-04 12:23 24.85729 109.95354 32111 ft 408 kts 221°
2026-05-04 12:24 24.81020 109.91859 32099 ft 408 kts 221°
2026-05-04 12:24 24.76310 109.88367 32100 ft 408 kts 221°
2026-05-04 12:25 24.71587 109.84868 32096 ft 409 kts 221°
2026-05-04 12:25 24.66874 109.81381 32095 ft 408 kts 221°
2026-05-04 12:26 24.62172 109.77884 32097 ft 408 kts 221°
2026-05-04 12:26 24.57505 109.74409 32094 ft 408 kts 221°
2026-05-04 12:27 24.52797 109.70908 32088 ft 409 kts 221°
2026-05-04 12:27 24.48088 109.67411 32091 ft 409 kts 221°
2026-05-04 12:28 24.43375 109.63914 32098 ft 409 kts 221°
2026-05-04 12:28 24.38656 109.60416 32092 ft 409 kts 221°
2026-05-04 12:29 24.33937 109.56931 32095 ft 409 kts 220°
2026-05-04 12:29 24.29217 109.53454 32111 ft 409 kts 220°
2026-05-04 12:30 24.24485 109.49969 32097 ft 410 kts 220°
2026-05-04 12:30 24.19749 109.46483 32089 ft 410 kts 220°
2026-05-04 12:31 24.15013 109.43001 32090 ft 410 kts 220°
2026-05-04 12:31 24.10277 109.39521 32097 ft 410 kts 220°
2026-05-04 12:32 24.03166 109.34299 32111 ft 410 kts 220°
2026-05-04 12:33 23.98438 109.30833 32108 ft 411 kts 220°
2026-05-04 12:33 23.93673 109.27344 32094 ft 412 kts 220°
2026-05-04 12:34 23.88910 109.23858 32113 ft 413 kts 220°
2026-05-04 12:34 23.84137 109.20367 32113 ft 412 kts 220°
2026-05-04 12:35 23.79323 109.16942 32093 ft 418 kts 214°
2026-05-04 12:35 23.76565 109.15798 32118 ft 430 kts 202°
2026-05-04 12:35 23.73592 109.15202 32105 ft 441 kts 192°
2026-05-04 12:35 23.70480 109.15270 32116 ft 452 kts 182°
2026-05-04 12:36 23.67345 109.15667 32110 ft 455 kts 180°
2026-05-04 12:36 23.61069 109.16596 32115 ft 456 kts 180°
2026-05-04 12:37 23.54787 109.17501 32112 ft 455 kts 180°
2026-05-04 12:37 23.48503 109.18352 32121 ft 455 kts 181°
2026-05-04 12:38 23.42263 109.19175 32107 ft 455 kts 181°
2026-05-04 12:38 23.35987 109.19999 32114 ft 454 kts 181°
2026-05-04 12:39 23.29717 109.20823 32118 ft 453 kts 181°
2026-05-04 12:39 23.23468 109.21645 32128 ft 452 kts 181°
2026-05-04 12:40 23.17226 109.22466 32123 ft 451 kts 181°
2026-05-04 12:40 23.10994 109.23283 32125 ft 451 kts 181°
2026-05-04 12:41 23.04769 109.24100 32119 ft 451 kts 181°
2026-05-04 12:41 22.98542 109.24916 32125 ft 451 kts 181°
2026-05-04 12:42 22.92316 109.25730 32119 ft 451 kts 181°
2026-05-04 12:42 22.86089 109.26545 32137 ft 450 kts 181°
2026-05-04 12:43 22.82543 109.27008 32132 ft 451 kts 181°
2026-05-04 13:55 22.77616 109.27652 32138 ft 451 kts 181°
2026-05-04 13:55 22.68291 109.28870 32151 ft 453 kts 181°
2026-05-04 13:56 22.62012 109.29698 32155 ft 455 kts 181°
2026-05-04 13:57 22.52553 109.30947 32152 ft 457 kts 181°
2026-05-04 13:58 22.39905 109.32613 32153 ft 458 kts 181°
2026-05-04 13:58 22.30437 109.33858 32144 ft 456 kts 180°
2026-05-04 13:59 22.24138 109.34682 32152 ft 455 kts 180°
2026-05-04 14:00 22.14731 109.35905 32145 ft 452 kts 180°
2026-05-04 14:00 22.05388 109.37119 32148 ft 450 kts 180°
2026-05-04 14:01 21.99262 109.37917 32145 ft 441 kts 180°
2026-05-04 14:02 21.90175 109.39094 32096 ft 439 kts 180°
2026-05-04 14:02 21.87136 109.39486 31731 ft 438 kts 180°
2026-05-04 14:02 21.84129 109.39877 31353 ft 433 kts 180°
2026-05-04 14:02 21.81150 109.40264 30959 ft 430 kts 180°
2026-05-04 14:03 21.78192 109.40647 30560 ft 426 kts 180°
2026-05-04 14:03 21.75252 109.41027 30144 ft 424 kts 180°
2026-05-04 14:03 21.72332 109.41404 29673 ft 421 kts 180°
2026-05-04 14:03 21.69433 109.41778 29214 ft 418 kts 180°
2026-05-04 14:04 21.63714 109.42517 28356 ft 410 kts 180°
2026-05-04 14:04 21.60887 109.42912 27928 ft 409 kts 175°
2026-05-04 14:04 21.58127 109.43705 27536 ft 413 kts 166°
2026-05-04 14:05 21.53028 109.46528 26946 ft 410 kts 155°
2026-05-04 14:05 21.50580 109.48089 26569 ft 408 kts 155°
2026-05-04 14:05 21.48142 109.49641 26174 ft 406 kts 155°
2026-05-04 14:06 21.45711 109.51172 25770 ft 404 kts 155°
2026-05-04 14:06 21.43322 109.52661 25365 ft 402 kts 155°
2026-05-04 14:06 21.40870 109.54179 24956 ft 401 kts 155°
2026-05-04 14:06 21.38490 109.55649 24550 ft 400 kts 155°
2026-05-04 14:07 21.36078 109.57138 24148 ft 399 kts 155°
2026-05-04 14:07 21.33671 109.58608 23742 ft 396 kts 158°
2026-05-04 14:07 21.31156 109.59745 23297 ft 389 kts 167°
2026-05-04 14:07 21.28566 109.60401 22957 ft 378 kts 176°
2026-05-04 14:08 21.25977 109.60792 22564 ft 374 kts 178°
2026-05-04 14:08 21.23405 109.61144 22174 ft 371 kts 178°
2026-05-04 14:08 21.20853 109.61487 21782 ft 369 kts 178°
2026-05-04 14:08 21.18314 109.61834 21389 ft 366 kts 177°
2026-05-04 14:09 21.13288 109.62539 20629 ft 362 kts 177°
2026-05-04 14:09 21.10795 109.62895 20249 ft 361 kts 176°
2026-05-04 14:10 21.05842 109.63609 19488 ft 358 kts 176°
2026-05-04 14:10 21.03385 109.63964 19100 ft 356 kts 176°
2026-05-04 14:10 21.00929 109.64319 18712 ft 356 kts 176°
2026-05-04 14:10 20.98487 109.64672 18329 ft 355 kts 176°
2026-05-04 14:11 20.96041 109.65026 17904 ft 353 kts 176°
2026-05-04 14:11 20.91191 109.65728 17117 ft 349 kts 176°
2026-05-04 14:11 20.88794 109.66075 16738 ft 347 kts 176°
2026-05-04 14:12 20.86410 109.66419 16368 ft 345 kts 176°
2026-05-04 14:12 20.84041 109.66762 15998 ft 343 kts 175°
2026-05-04 14:12 20.79332 109.67441 15264 ft 340 kts 175°
2026-05-04 14:13 20.76994 109.67779 14894 ft 338 kts 175°
2026-05-04 14:13 20.74668 109.68114 14519 ft 338 kts 175°
2026-05-04 14:13 20.72339 109.68450 14151 ft 337 kts 175°
2026-05-04 14:13 20.70016 109.68784 13770 ft 336 kts 175°
2026-05-04 14:14 20.67701 109.69118 13366 ft 335 kts 175°
2026-05-04 14:14 20.63106 109.69780 12616 ft 331 kts 175°
2026-05-04 14:14 20.60829 109.70108 12260 ft 329 kts 175°
2026-05-04 14:15 20.56324 109.70757 11551 ft 325 kts 175°
2026-05-04 14:15 20.51871 109.71397 10840 ft 321 kts 174°
2026-05-04 14:16 20.47954 109.73435 10358 ft 316 kts 141°
2026-05-04 14:16 20.46319 109.74948 10229 ft 307 kts 140°
2026-05-04 14:17 20.43202 109.77897 9906 ft 294 kts 140°
2026-05-04 14:17 20.41671 109.79333 9595 ft 293 kts 141°
2026-05-04 14:17 20.38618 109.82172 9000 ft 290 kts 141°
2026-05-04 14:18 20.37100 109.83578 8715 ft 288 kts 141°
2026-05-04 14:18 20.34081 109.86367 8125 ft 286 kts 141°
2026-05-04 14:19 20.31076 109.89140 7540 ft 285 kts 141°
2026-05-04 14:19 20.29582 109.90517 7260 ft 284 kts 141°
2026-05-04 14:19 20.28095 109.91887 6962 ft 283 kts 140°
2026-05-04 14:19 20.26623 109.93242 6687 ft 282 kts 140°
2026-05-04 14:20 20.25145 109.94603 6397 ft 278 kts 141°
2026-05-04 14:20 20.23696 109.95937 6100 ft 272 kts 141°
2026-05-04 14:20 20.22288 109.97235 5807 ft 265 kts 140°
2026-05-04 14:21 20.19514 109.99787 5278 ft 263 kts 140°
2026-05-04 14:21 20.18134 110.01056 5021 ft 262 kts 140°
2026-05-04 14:21 20.16758 110.02322 4747 ft 261 kts 140°
2026-05-04 14:21 20.15389 110.03580 4468 ft 260 kts 140°
2026-05-04 14:22 20.14022 110.04836 4199 ft 259 kts 140°
2026-05-04 14:22 20.12662 110.06086 3926 ft 258 kts 140°
2026-05-04 14:22 20.11310 110.07328 3674 ft 255 kts 140°
2026-05-04 14:22 20.09988 110.08543 3561 ft 248 kts 140°
2026-05-04 14:23 20.07454 110.10869 3332 ft 233 kts 139°
2026-05-04 14:23 20.06654 110.11603 3264 ft 228 kts 140°
2026-05-04 14:23 20.06377 110.11857 3241 ft 226 kts 139°
2026-05-04 14:24 20.05203 110.12933 3107 ft 221 kts 139°
2026-05-04 14:24 20.03868 110.13703 2889 ft 218 kts 167°
2026-05-04 14:24 20.02405 110.13836 2790 ft 212 kts 177°
2026-05-04 14:24 20.00962 110.13835 2674 ft 202 kts 178°
2026-05-04 14:25 19.99574 110.13829 2511 ft 197 kts 177°
2026-05-04 14:25 19.96869 110.13829 2266 ft 191 kts 177°
2026-05-04 14:25 19.95543 110.13845 2137 ft 191 kts 170°
2026-05-04 14:26 19.94354 110.14396 2043 ft 187 kts 134°
2026-05-04 14:26 19.93828 110.15584 2029 ft 177 kts 96°
2026-05-04 14:26 19.93675 110.16850 2000 ft 168 kts 97°
2026-05-04 14:26 19.93540 110.18092 2010 ft 170 kts 95°
2026-05-04 14:27 19.93472 110.19344 1998 ft 168 kts 92°
2026-05-04 14:27 19.93443 110.20577 1988 ft 165 kts 90°
2026-05-04 14:27 19.93432 110.21788 1994 ft 163 kts 90°
2026-05-04 14:27 19.93429 110.22996 1996 ft 163 kts 90°
2026-05-04 14:28 19.93430 110.24203 1986 ft 163 kts 91°
2026-05-04 14:28 19.93431 110.25406 1998 ft 163 kts 90°
2026-05-04 14:28 19.93432 110.26617 2007 ft 164 kts 90°
2026-05-04 14:28 19.93435 110.27835 2007 ft 166 kts 90°
2026-05-04 14:29 19.93439 110.30309 1995 ft 168 kts 90°
2026-05-04 14:29 19.93444 110.32798 1997 ft 166 kts 90°
2026-05-04 14:30 19.93447 110.34019 1880 ft 163 kts 90°
2026-05-04 14:30 19.93449 110.35175 1726 ft 148 kts 89°
2026-05-04 14:30 19.93452 110.37313 1340 ft 142 kts 90°
2026-05-04 14:31 19.93447 110.38360 1144 ft 142 kts 89°
2026-05-04 14:31 19.93450 110.40424 786 ft 147 kts 88°
2026-05-04 14:32 19.93466 110.42586 389 ft 145 kts 89°
2026-05-04 14:32 19.93458 110.43656 204 ft 145 kts 88°
2026-05-04 14:32 19.93473 110.44723 87 ft 142 kts 89°
2026-05-04 14:32 19.93469 110.45678 84 ft 110 kts 89°
2026-05-04 14:33 19.93478 110.46330 75 ft 59 kts 90°
2026-05-04 14:33 19.93511 110.46517 75 ft 20 kts 57°
2026-05-04 14:33 19.93547 110.46581 72 ft 0 kts 59°
2026-05-04 14:33 19.93548 110.46582 72 ft 1 kts 59°
2026-05-04 14:34 19.93555 110.46595 71 ft 3 kts 59°
2026-05-04 14:34 19.93572 110.46624 70 ft 6 kts 59°
2026-05-04 14:34 19.93588 110.46653 71 ft 8 kts 59°
2026-05-04 14:34 19.93627 110.46730 73 ft 10 kts 62°
2026-05-04 14:35 19.93653 110.46775 65 ft 11 kts 50°
2026-05-04 14:35 19.93738 110.46756 68 ft 13 kts 276°
2026-05-04 14:35 19.93754 110.46669 74 ft 11 kts 331°
2026-05-04 14:35 19.93834 110.46670 75 ft 10 kts 360°
2026-05-04 14:36 19.93855 110.46632 69 ft 6 kts 262°
2026-05-04 14:36 19.93854 110.46612 73 ft 2 kts 270°